Flag for Ecuador Weather past 2 weeks in Guayaquil, Ecuador

Now
75 °F

Light rain. Overcast.


Feels Like: 75 °F
Forecast: 76 / 85 °F
Wind: 2 mph from Southeast

Location: Guayaquil / Simon Bolivar

Current Time: Mar 29, 2015 at 1:21:41 AM

Latest Report: Mar 29, 2015 at 1:00 AM


Visibility: N/A

Pressure: 29.95 "Hg

Humidity: 89%

Dew point: 72 °F

Location of GuayaquilLocation

Historic Weather in Guayaquil — Graph

°F

Guayaquil temperature yesterday

Maximum temperature yesterday: 81 °F (at 12:00 AM)
Minimum temperature yesterday: 75 °F (at 6:00 PM)
Average temperature yesterday: 78 °F

Past Weeks' High & Low Weather Summary

 TemperatureHumidityPressure
High102 °F (Mar 24, 8:00 PM)94% (Mar 28, 11:00 PM)30.01 "Hg (Mar 28, 11:00 PM)
Low73 °F (Mar 17, 6:00 AM)37% (Mar 24, 8:00 PM)29.68 "Hg (Mar 14, 3:00 PM)
Average81 °F76%29.86 "Hg
* Reported Midnight between Mar 13 and Mar 14 — Midnight between Mar 28 and Mar 29, Guayaquil, Weather by CustomWeather, © 2015

Note: Actual official high and low records may vary slightly from our data, if they occured in-between our weather recording intervals... More about our weather records

Advertising

Guayaquil weather history for previous 24 hours

 ConditionsComfort  
Time TempWeatherWind HumidityBarometerVisibility
12:00 AM
Sun, Mar 29
75 °FLight rain. Overcast.3 mph94%29.95 "HgN/A
11:00 PM
Sat, Mar 28
75 °FLight rain. Overcast.2 mph94%29.98 "HgN/A
10:00 PM77 °FLight rain. Overcast.2 mph89%29.98 "HgN/A
9:00 PM75 °FLight rain. Mostly cloudy.3 mph89%29.95 "Hg5 mi
7:00 PM75 °FRain. Overcast.3 mph89%29.89 "Hg2 mi
6:00 PM75 °FHeavy rain. Cloudy.5 mph89%29.89 "Hg2 mi
5:00 PM77 °FHeavy rain. Cloudy.5 mph89%29.86 "Hg1 mi
4:00 PM81 °FRain. Mostly cloudy.6 mph79%29.86 "HgN/A
3:00 PM79 °FScattered showers. Mostly cloudy.2 mph84%29.86 "HgN/A
2:00 PM79 °FScattered showers. Mostly cloudy.5 mph84%29.89 "HgN/A
1:00 PM79 °FMostly cloudy.1 mph84%29.92 "HgN/A
12:00 PM79 °FLight rain. Mostly cloudy.1 mph84%29.95 "Hg4 mi
11:00 AM79 °FLight rain. Mostly cloudy.3 mph84%29.95 "HgN/A
10:00 AM79 °FLight rain. Partly sunny.2 mph79%29.98 "HgN/A
9:00 AM77 °FLight rain. Mostly cloudy.6 mph83%29.95 "Hg5 mi
8:00 AM79 °FScattered showers. Partly sunny.6 mph84%29.92 "HgN/A
7:00 AM79 °FCloudy.5 mph84%29.92 "HgN/A
6:00 AM77 °FPartly cloudy.No wind83%29.89 "HgN/A
4:00 AM77 °FPartly cloudy.3 mph83%29.86 "HgN/A
2:00 AM77 °FPartly cloudy.6 mph89%29.89 "HgN/A
1:00 AM77 °FLight rain. Mostly cloudy.5 mph89%29.89 "HgN/A
Weather by CustomWeather, © 2015

See weather overviewHow to use our weather pages